Weather History for Ft Pierce, FL

Change the Weather History Date:

Tuesday, April 30, 2013

  Actual Average Record
Temperature  
Mean Temperature 73 °F -  
Max Temperature 81 °F 83 °F 97 °F (1971)
Min Temperature 66 °F 63 °F 33 °F (1999)
Cooling Degree Days 8    
Growing Degree Days 23 (Base 50)    
Moisture  
Dew Point 67 °F    
Average Humidity 86    
Maximum Humidity 94    
Minimum Humidity 60    
Precipitation  
Precipitation 0.12 in - - ()
Sea Level Pressure  
Sea Level Pressure 29.99 in    
Wind  
Wind Speed 3 mph (ESE)    
Max Wind Speed 16 mph    
Max Gust Speed -    
Visibility 7 miles    
Events Fog , Rain    
Averages and records for this station are not official NWS values.
T = Trace of Precipitation, MM = Missing Value Source: NWS Daily Summary

Daily Weather History Graph

Daily Weather History Graph

Search for Another Location

Airport:

Trip Planner

Search our weather history database for the weather conditions in past years. The results will help you decide how hot, cold, wet, or windy it might be!

Date:

Astronomy

Apr. 30, 2013 Rise Set
Actual Time 6:42 AM EDT 7:54 PM EDT
Civil Twilight 6:18 AM EDT 8:19 PM EDT
Nautical Twilight 5:49 AM EDT 8:48 PM EDT
Astronomical Twilight 5:19 AM EDT 9:18 PM EDT
Moon 12:10 AM EDT (4/30) 11:15 AM EDT (4/30)
Length of Visible Light 14h 01m
Length of Day
13h 11m
Waning Gibbous, 70% of the Moon is Illuminated
Apr 30
Waning Gibbous
May 2
Last Quarter
May 9
New
May 18
First Quarter
May 25
Full

Hourly Weather History & Observations

Time (EDT) Temp. Heat Index Dew Point Humidity Pressure Visibility Wind Dir Wind Speed Gust Speed Precip Events Conditions
12:53 AM 68.0 °F - 64.9 °F 90% 29.98 in 7.0 mi Calm Calm - N/A   Clear
1:53 AM 68.0 °F - 64.9 °F 90% 29.96 in 4.0 mi Calm Calm - N/A   Clear
2:13 AM 69.8 °F - 64.4 °F 83% 29.96 in 1.8 mi WNW 3.5 mph - N/A   Clear
2:23 AM 66.2 °F - 64.4 °F 94% 29.96 in 3.0 mi NW 4.6 mph - N/A   Clear
2:53 AM 66.9 °F - 64.9 °F 93% 29.95 in 5.0 mi NW 3.5 mph - N/A   Clear
3:53 AM 66.9 °F - 64.9 °F 93% 29.96 in 5.0 mi Calm Calm - N/A   Clear
4:53 AM 68.0 °F - 66.0 °F 93% 29.95 in 3.0 mi Calm Calm - N/A   Partly Cloudy
5:53 AM 68.0 °F - 66.0 °F 93% 29.96 in 5.0 mi Calm Calm - N/A   Clear
6:12 AM 66.2 °F - 64.4 °F 94% 29.96 in 1.8 mi Calm Calm - N/A   Clear
6:18 AM 66.2 °F - 64.4 °F 94% 29.97 in 0.8 mi Calm Calm - N/A   Mist
6:22 AM 66.2 °F - 64.4 °F 94% 29.97 in 0.2 mi Calm Calm - N/A Fog Fog
6:35 AM 66.2 °F - 64.4 °F 94% 29.97 in 0.8 mi Calm Calm - N/A   Mist
6:37 AM 66.2 °F - 64.4 °F 94% 29.97 in 2.0 mi Calm Calm - N/A   Scattered Clouds
6:44 AM 66.2 °F - 64.4 °F 94% 29.97 in 8.0 mi Calm Calm - N/A   Scattered Clouds
6:53 AM 66.0 °F - 64.0 °F 93% 29.98 in 7.0 mi Calm Calm - N/A   Scattered Clouds
7:53 AM 69.1 °F - 66.9 °F 93% 30.00 in 5.0 mi Calm Calm - N/A   Partly Cloudy
8:53 AM 75.9 °F - 71.1 °F 85% 30.01 in 9.0 mi Calm Calm - N/A   Clear
9:53 AM 80.1 °F 83.2 °F 70.0 °F 71% 30.01 in 10.0 mi Calm Calm - N/A   Partly Cloudy
10:20 AM 80.6 °F 83.2 °F 68.0 °F 65% 30.01 in 10.0 mi SSW 4.6 mph - N/A   Mostly Cloudy
10:53 AM 78.1 °F - 71.1 °F 79% 30.01 in 10.0 mi ENE 6.9 mph - N/A   Overcast
11:00 AM 78.8 °F - 69.8 °F 74% 30.01 in 10.0 mi ENE 6.9 mph - N/A   Mostly Cloudy
11:16 AM 77.0 °F - 69.8 °F 78% 30.01 in 10.0 mi ENE 9.2 mph - N/A   Mostly Cloudy
11:23 AM 77.0 °F - 69.8 °F 78% 30.01 in 10.0 mi East 9.2 mph - N/A   Overcast
11:53 AM 73.9 °F - 70.0 °F 87% 30.01 in 5.0 mi East 15.0 mph - 0.08 in Rain Heavy Rain
11:55 AM 73.4 °F - 69.8 °F 88% 30.01 in 1.8 mi East 16.1 mph - 0.00 in Rain Heavy Rain
12:01 PM 73.4 °F - 71.6 °F 94% 30.01 in 5.0 mi East 15.0 mph - 0.00 in Rain Light Rain
12:07 PM 73.4 °F - 71.6 °F 94% 30.01 in 5.0 mi East 11.5 mph - 0.00 in Rain Light Rain
12:26 PM 75.2 °F - 71.6 °F 89% 30.00 in 5.0 mi ESE 11.5 mph - 0.03 in Rain Light Rain
12:53 PM 75.9 °F - 71.1 °F 85% 30.00 in 9.0 mi ESE 9.2 mph - 0.03 in   Overcast
1:53 PM 75.0 °F - 70.0 °F 84% 29.99 in 10.0 mi SE 9.2 mph - 0.00 in Rain Light Rain
2:53 PM 77.0 °F - 66.9 °F 71% 29.97 in 10.0 mi ESE 9.2 mph - 0.01 in   Mostly Cloudy
3:53 PM 80.1 °F 81.9 °F 64.9 °F 60% 29.98 in 10.0 mi SE 11.5 mph - N/A   Overcast
4:53 PM 79.0 °F - 66.9 °F 66% 29.96 in 10.0 mi SSE 13.8 mph - N/A   Partly Cloudy
5:53 PM 77.0 °F - 68.0 °F 74% 29.97 in 10.0 mi South 6.9 mph - 0.00 in   Mostly Cloudy
6:53 PM 75.9 °F - 68.0 °F 76% 29.96 in 10.0 mi Calm Calm - 0.00 in   Scattered Clouds
7:53 PM 73.9 °F - 69.1 °F 85% 29.98 in 10.0 mi South 3.5 mph - N/A   Partly Cloudy
8:53 PM 73.0 °F - 69.1 °F 87% 29.99 in 10.0 mi Calm Calm - N/A   Clear
9:53 PM 72.0 °F - 69.1 °F 91% 30.01 in 10.0 mi Calm Calm - N/A   Clear
10:53 PM 69.1 °F - 66.9 °F 93% 30.01 in 9.0 mi Calm Calm - N/A   Clear
11:53 PM 69.1 °F - 66.0 °F 90% 30.01 in 4.0 mi Calm Calm - N/A   Clear